Starlink 5577

operational
NORAD ID: 55751 Int'l Des: 2023-028 Owner: SPXS Country: US Constellation: starlink
LEOCIRCULAR

Über Starlink 5577

Beschreibung wird geladen...

Live-Position

3D-Globus wird geladen...

Nächste Überflüge

Höhenverlauf

Altitude vs Time

uPlot chart will show altitude changes over time

Zweizeiliger Elementsatz

1 55751U 23028L 25308.68658478 .00004829 00000-0 41269-3 0 9996
2 55751 70.0015 199.7221 0001954 273.1862 86.9073 14.98284306147311
Epoch: 4. Nov. 2025 • Age: 18 hours

Aktueller Status

Höhe 577.9 km
Geschwindigkeit 7.57 km/s
Subsatellitenpunkt -17.12°S, 3.75°W
Startdatum 3. März 2023
Alter 2.6 years
Typ internet

Technische Details

Klassifizierung Payload
Masse 305.00 kg
Trockenmasse 290.00 kg
Gesamtmasse 305.00 kg
Länge 0.20 m
Durchmesser 2.80 m
Spannweite 9.00 m
Form Box + pan
Hersteller SPXS
Bus-Typ Starlink
Phasenstatus In Orbit
Besitzer/Staat SPXS/US

Große Konstellationen

Loading constellations...